COSMOS 1275 DEB

Satellite information

Favourite Embed

Satellite Type and Status

DEBRISIN ORBIT

Key statistics

Satellite COSMOS 1275 DEB at a glance.

Uptime

16105

Days in orbit

Revolutions

≈ 14.0

Per day

Orbit

LEO

Low Earth Orbit

Inclination

83.0

Latest

Satellite identification and parameters

Extended collection of information and parameters for COSMOS 1275 DEB.

Object identification

Identified? True

Debris? True

Object name: COSMOS 1275 DEB

International designator: 1981-053GA

Object number (NORAD): 13480

Object ID (CCSDS): 13480

Country: COMMONWEALTH OF INDEPENDENT STATES (CIS)

Current information (Y/N): Y

RCS size: SMALL

Orbital parameters

Period: 102.995 minutes

Inclination: 82.9619 deg

SMA: 7278.409 km

Apoapsis: 948.379 km

Periapsis: 852.169 km

RAAN: 71.8289 deg

Eccentricy: 0.0066093

Argument of periapsis: 318.102 deg

Mean anomaly: 53.5086 deg

Mean motion: 13.98131603 rev/day

Mean motion (dot): 0.00001164 rev/day2

B* drag term: 0.00079311 1/REarth

Two-line elements (TLE)

Creation date: July 8, 2025, 2:27 a.m.

Reference frame: TEME

Reference center: EARTH

Epoch: July 7, 2025, 10:08 p.m. UTC

TLE line 0: 0 COSMOS 1275 DEB

TLE line 1: 1 13480U 81053GA 25188.92256773 .00001164 00000-0 79311-3 0 9994

TLE line 2: 2 13480 82.9619 71.8289 0066093 318.1020 53.5086 13.98131603174168

Live tracking on map

Real-time ground track for satellite COSMOS 1275 DEB.

In-orbit conjunctions

A list of the most updated potential collisions computed for object COSMOS 1275 DEB.

Target Orbit TCA Probability of collision Miss distance Type
CZ-6A DEB LEO 2025-01-06 20:32:59 0.0001115554 470.0 (m) DEBRIS
FENGYUN 1C DEB SSO 2024-12-12 16:46:40 0.0001868478 75.0 (m) DEBRIS

Associated space launch

Navigation satellite providing location information for the Tsiklon-B navigation system

COSMOS 1275 DEB was lifted into orbit during the mission ‘Kosmos-3M | Parus 27’, on board a Kosmos-3M space rocket.

The launch took place on June 4, 1981, 3:41 p.m. from 132/2.

For more information about the launch, click the button.

Launch to space Kosmos-3M | Parus 27
Kosmos-3M | Parus 27

Agency: N/A

Status: Launch Successful

Launch date: June 4, 1981, 3:41 p.m. UTC

Rocket: Kosmos-3M

Launch pad: 132/2

Location: Plesetsk Cosmodrome, Russian Federation

...

Latest news about this satellite

There are no fresh news available about this satellite. Check back as we update our databases every day.


Newsletter sign-up

Weekly statistics, charts and insights to help you stay on top of the space industry.